sat.trackr.live / text

‹ back to catalog

STARLINK-36350

NORAD 67572 · 2026-016M

PAYLOAD ACTIVE UNKNOWN

§ Identity

Operator
Country
US
Launch date
2026-01-25
Launch site
AFWTR
Launch vehicle
Mass (kg)
RCS (m²)

Purposes: comms

External: N2YO · Heavens-Above · Gunter

§ Orbital elements

Epoch: 2026-09-19T21:11:54.642912Z

Period
93.91 min
Inclination
97.2862°
Eccentricity
0.0000554
Mean motion
15.33455367 rev/d
Perigee alt
465.1 km
Apogee alt
465.9 km
Semi-major
6,843.6 km
B*
6.2599e-4
RAAN
321.5207°
Arg perigee
128.5031°
Mean anomaly
231.6262°
Rev number
3,662

§ Raw data

STARLINK-363501 67572U 26016M   26262.88327133  .00020195  00000+0  62599-3 0  99952 67572  97.2862 321.5207 0000554 128.5031 231.6262 15.33455367 36628

JSON: /api/v1/satellites/67572 · /tle

For live sub-satellite position, see the globe view (requires WebGL).

§ Visibility from observer

Set your observer location to see the next 7 days of passes ≥ 10°. The values pass through the URL so the page stays shareable.

No JS? Fill the form by hand. The geolocation button needs JavaScript.